[[{"header":{"parameterUnit":"m.s-1","parameterCategory":2,"la1":30.2991,"la2":30.254,"lo1":-89.0895,"lo2":-89.0444,"dy":0.0017,"dx":0.0017,"nx":28,"ny":28,"refTime":"2023-09-28T09:00:00:Z","depth":"0","parameterNumber":2,"parameterNumberName":"U-component_of_CURRENTS"},"data":[0,0,0,0,0,0,0,0,0,0,0,0,0,0,0,0,0,0,0,0,0,0,0,0,0,0,0,0,0,0,0,0,0,0,0,0,0,0,0,0,0,0,0,0,0,0,0,0,0,0,0,0,0,0,0,0,0,0,0.1945,0.1946,0,0.2012,0.2013,0.2014,0.205,0.205,0.205,0.2051,0.2023,0.2022,0.2021,0,0,0,0,0,0,0,0,0,0,0,0,0,0.1873,0.1873,0.1945,0.1946,0.1947,0.2012,0.2013,0.2014,0.205,0.205,0.205,0.2051,0.2024,0.2022,0.2021,0,0,0,0,0,0,0,0,0,0,0,0,0,0.1917,0.1874,0.1945,0.1974,0.1977,0.2012,0.2013,0.2014,0.205,0.205,0.2051,0.2051,0.2024,0.2023,0.2021,0.2006,0,0,0.2017,0.2016,0,0,0,0,0,0,0,0,0.1914,0.1919,0.1969,0.1972,0.1976,0.2024,0.1978,0.2007,0.205,0.2021,0.2051,0.2051,0.2015,0.2015,0.2026,0.2005,0.2004,0.2017,0.2016,0.2015,0.2015,0,0,0,0,0,0,0,0.1911,0.1917,0.197,0.197,0.1974,0.1992,0.1998,0.1984,0.2013,0.2023,0.2026,0.2036,0.2017,0.2027,0.2025,0.2003,0.2017,0.2016,0.2015,0.2014,0.199,0.199,0,0,0,0,0,0,0.1904,0.1914,0.1968,0.1972,0.1947,0.1993,0.2,0.2007,0.2015,0.2018,0.2036,0.2038,0.203,0.2027,0.2024,0.2029,0.2015,0.2014,0.2013,0.199,0.199,0.1991,0,0,0,0,0,0,0.1902,0.1908,0.1965,0.1946,0.1955,0.1994,0.2002,0.2008,0.2021,0.2026,0.2026,0.2042,0.203,0.2026,0.2022,0.2027,0.2013,0.2012,0.199,0.199,0.199,0.2022,0,0,0,0,0,0,0.19,0.1907,0.1903,0.1945,0.1955,0.1984,0.2002,0.201,0.2027,0.203,0.2031,0.2029,0.203,0.2024,0.2021,0.2025,0.2011,0.199,0.199,0.199,0.2021,0.2024,0.2026,0,0,0,0,0,0.1897,0.1887,0.1902,0.1909,0.1951,0.1984,0.1991,0.2019,0.2027,0.2031,0.2039,0.2029,0.2024,0.2023,0.2019,0.2023,0.1989,0.199,0.199,0.202,0.2023,0.2026,0,0,0,0,0,0,0.1853,0.1891,0.1909,0.1911,0.1946,0.1991,0.1993,0.2016,0.2028,0.2025,0.203,0.2029,0.2029,0.2017,0.2017,0.2017,0.2005,0.2004,0.2029,0.2031,0.2034,0.2034,0.201,0,0,0,0,0,0.1842,0.1844,0.1892,0.1894,0.1909,0.1951,0.1965,0.1989,0.201,0.2017,0.2024,0.2025,0.2027,0.2023,0.202,0.2014,0.2016,0.2013,0.2016,0.2018,0.2016,0.2028,0.2031,0.1992,0.1992,0.1992,0,0,0.1827,0.1847,0.185,0.1885,0.1911,0.1935,0.196,0.1981,0.2006,0.2007,0.2028,0.2031,0.2027,0.2033,0.203,0.2023,0.2033,0.2019,0.2021,0.2017,0.2028,0.2032,0.2036,0.1992,0.1992,0.1992,0,0,0.1801,0.1816,0.1813,0.1842,0.1881,0.1913,0.1919,0.1967,0.1991,0.2012,0.2024,0.2031,0.2031,0.204,0.2041,0.2049,0.2047,0.2046,0.2057,0.2069,0.2073,0.2076,0.2096,0.2101,0.2046,0.2046,0.2046,0,0.1781,0.1793,0.1818,0.183,0.1859,0.1903,0.1924,0.1952,0.1995,0.2016,0.2017,0.2043,0.2036,0.2054,0.2062,0.2055,0.2065,0.2049,0.2073,0.2076,0.2079,0.2099,0.2104,0.2048,0.2047,0.2047,0.2047,0,0.1769,0.1778,0.1778,0.1814,0.1844,0.1867,0.1921,0.1948,0.198,0.2014,0.2044,0.2051,0.2069,0.2068,0.2066,0.2084,0.2088,0.2078,0.2068,0.2085,0.2105,0.2109,0.205,0.2049,0.2049,0.2049,0,0,0.173,0.1765,0.1765,0.1787,0.1844,0.1871,0.191,0.1967,0.1997,0.203,0.2071,0.2079,0.2092,0.2094,0.2099,0.2105,0.2135,0.21,0.21,0.2124,0.2173,0.2257,0.227,0.2133,0.2134,0.2134,0.2185,0,0.172,0.1736,0.1764,0.1796,0.1818,0.1876,0.1914,0.1966,0.2012,0.2056,0.2078,0.2107,0.2101,0.2113,0.2122,0.2136,0.2145,0.2122,0.2149,0.215,0.2226,0.2277,0.236,0.2419,0.2189,0.219,0.219,0,0.1706,0.1723,0.1747,0.1804,0.1821,0.1847,0.1929,0.1968,0.2035,0.2069,0.2106,0.213,0.216,0.2143,0.218,0.2169,0.217,0.2173,0.2175,0.2243,0.2242,0.2362,0.2435,0.2379,0.2197,0.2196,0.2196,0,0.1679,0.1716,0.1737,0.1757,0.1823,0.185,0.1893,0.1966,0.2012,0.2076,0.2112,0.2154,0.2184,0.2194,0.2225,0.22,0.2267,0.223,0.2305,0.231,0.2381,0.2393,0.2407,0.2241,0.2241,0.2241,0.2241,0,0.1664,0.1681,0.1723,0.1735,0.1774,0.1829,0.188,0.1932,0.2007,0.2064,0.2111,0.2165,0.2196,0.2248,0.2249,0.2322,0.2292,0.2325,0.2337,0.2396,0.2408,0.2361,0.2297,0.2243,0.2242,0.2242,0.2241,0,0.1628,0.1656,0.168,0.1736,0.1757,0.1784,0.187,0.1909,0.1983,0.206,0.2084,0.2181,0.2269,0.2317,0.2354,0.2372,0.2376,0.2432,0.2514,0.2536,0.2553,0.2488,0.2397,0.2312,0.2523,0.2526,0.2528,0,0.1601,0.1607,0.1663,0.168,0.1702,0.1751,0.1791,0.1883,0.1939,0.2075,0.2115,0.223,0.2331,0.2455,0.2537,0.2608,0.2462,0.2681,0.2641,0.259,0.2524,0.236,0.2279,0.2743,0.2747,0.275,0.2752,0,0.155,0.1575,0.1602,0.1634,0.167,0.1714,0.1784,0.1831,0.1952,0.2033,0.2158,0.2249,0.2451,0.2598,0.2725,0.2766,0.2608,0.2745,0.2666,0.269,0.2534,0.2449,0.2665,0.2779,0.2777,0.2775,0.2773,0.2772,0.1509,0.1515,0.1551,0.159,0.1624,0.1668,0.1702,0.1802,0.1894,0.2034,0.2145,0.2304,0.2589,0.2814,0.2844,0.2972,0.2783,0.2927,0.2851,0.2685,0.2608,0.2898,0.3041,0.304,0.3039,0.3038,0.3037,0,0.1446,0.1475,0.1503,0.1546,0.1567,0.1609,0.169,0.1731,0.1834,0.2008,0.2135,0.2464,0.2697,0.2899,0.3158,0.3103,0.2927,0.2997,0.2777,0.2686,0.2965,0.2985,0.3153,0.3153,0.3153,0.3153,0.3154,0.3154,0.1409,0.1426,0.1457,0.148,0.1509,0.152,0.1557,0.1642,0.1762,0.1966,0.2168,0.2343,0.274,0.3079,0.3203,0.3146,0.2838,0.2785,0.2589,0.2821,0.2806,0.2792,0.2797,0.2923,0.2923,0.2293,0.2289,0.2285]},{"header":{"parameterUnit":"m.s-1","parameterCategory":2,"la1":30.2991,"la2":30.254,"lo1":-89.0895,"lo2":-89.0444,"dy":0.0017,"dx":0.0017,"nx":28,"ny":28,"refTime":"2023-09-28T09:00:00:Z","depth":"0","parameterNumber":3,"parameterNumberName":"V-component_of_CURRENTS"},"data":[0,0,0,0,0,0,0,0,0,0,0,0,0,0,0,0,0,0,0,0,0,0,0,0,0,0,0,0,0,0,0,0,0,0,0,0,0,0,0,0,0,0,0,0,0,0,0,0,0,0,0,0,0,0,0,0,0,0,-0.1313,-0.1313,0,-0.1342,-0.1342,-0.1342,-0.1339,-0.1339,-0.134,-0.134,-0.1289,-0.1287,-0.1286,0,0,0,0,0,0,0,0,0,0,0,0,0,-0.1102,-0.1106,-0.1312,-0.1313,-0.1314,-0.1342,-0.1342,-0.1342,-0.1339,-0.1339,-0.134,-0.134,-0.1289,-0.1288,-0.1286,0,0,0,0,0,0,0,0,0,0,0,0,0,-0.1164,-0.1108,-0.1312,-0.1321,-0.1322,-0.1342,-0.1342,-0.1342,-0.1339,-0.1339,-0.134,-0.134,-0.129,-0.1288,-0.1286,-0.127,0,0,-0.1279,-0.1278,0,0,0,0,0,0,0,0,-0.116,-0.1171,-0.1319,-0.132,-0.1322,-0.1342,-0.1249,-0.1316,-0.1339,-0.1327,-0.134,-0.134,-0.1303,-0.13,-0.1298,-0.1267,-0.1265,-0.1279,-0.1278,-0.1277,-0.1276,0,0,0,0,0,0,0,-0.1156,-0.1169,-0.1318,-0.132,-0.1322,-0.1271,-0.1281,-0.1261,-0.1308,-0.1328,-0.1329,-0.1342,-0.1302,-0.13,-0.1297,-0.1264,-0.1279,-0.1277,-0.1276,-0.1275,-0.1238,-0.1238,0,0,0,0,0,0,-0.1173,-0.1166,-0.1317,-0.132,-0.1246,-0.1276,-0.1286,-0.1331,-0.131,-0.1309,-0.1342,-0.1342,-0.1304,-0.1299,-0.1295,-0.1281,-0.1277,-0.1275,-0.1273,-0.1238,-0.1238,-0.1239,0,0,0,0,0,0,-0.1169,-0.1188,-0.1316,-0.1245,-0.1259,-0.1281,-0.133,-0.1332,-0.1332,-0.1322,-0.1319,-0.1342,-0.1304,-0.1298,-0.1278,-0.1279,-0.1274,-0.1272,-0.1237,-0.1238,-0.1238,-0.125,0,0,0,0,0,0,-0.1163,-0.1187,-0.1203,-0.1248,-0.1264,-0.1327,-0.133,-0.1332,-0.1343,-0.1343,-0.1321,-0.1317,-0.1303,-0.1282,-0.1276,-0.1276,-0.127,-0.1237,-0.1238,-0.1238,-0.1249,-0.1251,-0.1252,0,0,0,0,0,-0.1156,-0.1179,-0.1204,-0.1221,-0.1294,-0.1328,-0.133,-0.134,-0.1342,-0.134,-0.1328,-0.1317,-0.1282,-0.128,-0.1273,-0.1273,-0.1237,-0.1237,-0.1238,-0.1248,-0.125,-0.1252,0,0,0,0,0,0,-0.108,-0.1183,-0.1211,-0.1261,-0.1294,-0.133,-0.1325,-0.1341,-0.1331,-0.1325,-0.1314,-0.1308,-0.1293,-0.1282,-0.1281,-0.1266,-0.126,-0.126,-0.127,-0.1272,-0.1273,-0.1271,-0.1268,0,0,0,0,0,-0.108,-0.1133,-0.1206,-0.124,-0.1262,-0.1295,-0.1303,-0.1319,-0.1329,-0.1325,-0.1317,-0.1305,-0.1291,-0.1281,-0.1267,-0.1252,-0.1252,-0.1251,-0.1253,-0.1254,-0.1249,-0.1254,-0.1255,-0.1241,-0.1241,-0.1241,0,0,-0.1057,-0.1121,-0.1148,-0.1228,-0.1253,-0.1276,-0.1298,-0.1319,-0.1328,-0.1318,-0.1312,-0.1306,-0.1289,-0.1277,-0.127,-0.1266,-0.126,-0.1255,-0.1256,-0.125,-0.1255,-0.1256,-0.1257,-0.1241,-0.1241,-0.1241,0,0,-0.1034,-0.1101,-0.1134,-0.1168,-0.1223,-0.125,-0.1261,-0.1304,-0.1312,-0.1315,-0.1311,-0.1307,-0.1288,-0.1281,-0.1273,-0.1273,-0.1268,-0.1272,-0.1274,-0.1279,-0.128,-0.128,-0.129,-0.1292,-0.1272,-0.1272,-0.1272,0,-0.0994,-0.1062,-0.1136,-0.1168,-0.1186,-0.1242,-0.1254,-0.1275,-0.1302,-0.1305,-0.1312,-0.1299,-0.129,-0.1275,-0.1281,-0.1275,-0.1279,-0.1267,-0.128,-0.1281,-0.1282,-0.1291,-0.1293,-0.1273,-0.1273,-0.1273,-0.1273,0,-0.0999,-0.1042,-0.1057,-0.1131,-0.1157,-0.1174,-0.1231,-0.1248,-0.127,-0.129,-0.1291,-0.129,-0.1282,-0.1286,-0.1282,-0.1283,-0.1285,-0.1282,-0.1275,-0.1284,-0.1294,-0.1295,-0.1274,-0.1274,-0.1274,-0.1273,0,0,-0.0922,-0.104,-0.1039,-0.106,-0.1138,-0.1153,-0.1184,-0.1219,-0.1225,-0.1259,-0.1257,-0.1263,-0.1276,-0.1269,-0.1272,-0.1282,-0.1299,-0.1286,-0.1286,-0.1294,-0.1315,-0.1283,-0.1282,-0.1299,-0.13,-0.13,-0.1323,0,-0.0889,-0.0939,-0.1009,-0.1021,-0.1043,-0.1108,-0.1128,-0.1166,-0.12,-0.1214,-0.124,-0.1236,-0.1267,-0.1258,-0.128,-0.1283,-0.1302,-0.1293,-0.1306,-0.1307,-0.1276,-0.1282,-0.1227,-0.124,-0.1325,-0.1325,-0.1325,0,-0.0853,-0.0896,-0.0917,-0.0975,-0.0988,-0.1,-0.1036,-0.1062,-0.1114,-0.1139,-0.1168,-0.1195,-0.1215,-0.1238,-0.1276,-0.1269,-0.1297,-0.1312,-0.1313,-0.1277,-0.1277,-0.1243,-0.124,-0.1342,-0.1327,-0.1327,-0.1327,0,-0.0745,-0.0816,-0.0828,-0.0848,-0.0929,-0.0933,-0.0965,-0.1023,-0.1036,-0.1085,-0.1091,-0.1143,-0.1143,-0.1198,-0.1247,-0.1262,-0.1283,-0.1305,-0.1308,-0.1307,-0.1257,-0.1251,-0.1349,-0.1337,-0.1337,-0.1337,-0.1337,0,-0.0679,-0.0678,-0.0775,-0.0773,-0.0767,-0.0848,-0.0841,-0.0888,-0.0938,-0.093,-0.1033,-0.1027,-0.1132,-0.1165,-0.1229,-0.1264,-0.1272,-0.1306,-0.1307,-0.1261,-0.1254,-0.1338,-0.1429,-0.1338,-0.1338,-0.1337,-0.1337,0,-0.0559,-0.0629,-0.0633,-0.0704,-0.0717,-0.0704,-0.0759,-0.0759,-0.0824,-0.0816,-0.0825,-0.0926,-0.097,-0.1071,-0.1144,-0.1214,-0.132,-0.1274,-0.1216,-0.121,-0.1316,-0.1409,-0.1528,-0.1588,-0.1294,-0.1294,-0.1293,0,-0.0504,-0.0502,-0.0555,-0.0553,-0.058,-0.0589,-0.0595,-0.0676,-0.068,-0.0737,-0.0714,-0.0778,-0.0792,-0.0912,-0.1038,-0.1145,-0.1277,-0.1189,-0.121,-0.1313,-0.1418,-0.1498,-0.1547,-0.116,-0.1158,-0.1157,-0.1156,0,-0.039,-0.0412,-0.0426,-0.0431,-0.043,-0.0437,-0.0453,-0.0437,-0.0512,-0.0504,-0.0493,-0.0508,-0.0645,-0.0722,-0.0901,-0.1,-0.1273,-0.1164,-0.1283,-0.1332,-0.1413,-0.1471,-0.1167,-0.1144,-0.1145,-0.1146,-0.1147,-0.1147,-0.0291,-0.0278,-0.0307,-0.0302,-0.0304,-0.0285,-0.0251,-0.0252,-0.022,-0.017,-0.0252,-0.0188,-0.0395,-0.0625,-0.083,-0.1124,-0.1187,-0.1198,-0.1306,-0.1379,-0.1429,-0.11,-0.1067,-0.1068,-0.1068,-0.1069,-0.1069,0,-0.0179,-0.0192,-0.0183,-0.0185,-0.0155,-0.0189,-0.0159,-0.0103,-0.0008,0.0077,0.0119,0.0127,-0.0146,-0.047,-0.0883,-0.1173,-0.1337,-0.1353,-0.1464,-0.1511,-0.121,-0.1193,-0.1168,-0.1168,-0.1168,-0.1168,-0.1167,-0.1167,-0.0125,-0.0092,-0.0106,-0.0046,-0.004,0.0026,0.0067,0.0163,0.0249,0.0447,0.057,0.0599,0.0415,-0.0506,-0.1172,-0.1377,-0.1614,-0.1669,-0.1819,-0.1616,-0.161,-0.1604,-0.1607,-0.167,-0.1671,-0.2051,-0.2055,-0.2058]}],[{"header":{"parameterUnit":"m.s-1","parameterCategory":2,"la1":30.2991,"la2":30.254,"lo1":-89.0895,"lo2":-89.0444,"dy":0.0017,"dx":0.0017,"nx":28,"ny":28,"refTime":"2023-09-28T09:00:00:Z","depth":"2","parameterNumber":2,"parameterNumberName":"U-component_of_CURRENTS"},"data":[0,0,0,0,0,0,0,0,0,0,0,0,0,0,0,0,0,0,0,0,0,0,0,0,0,0,0,0,0,0,0,0,0,0,0,0,0,0,0,0,0,0,0,0,0,0,0,0,0,0,0,0,0,0,0,0,0,0,0.2206,0.2206,0,0.2137,0.2136,0.2135,0.2086,0.2086,0.2086,0.2086,0.2038,0.2037,0.2036,0,0,0,0,0,0,0,0,0,0,0,0,0,0.2231,0.2231,0.2206,0.2206,0.2205,0.2137,0.2136,0.2135,0.2086,0.2086,0.2086,0.2086,0.2039,0.2037,0.2036,0,0,0,0,0,0,0,0,0,0,0,0,0,0.2194,0.2231,0.2206,0.2175,0.2172,0.2138,0.2136,0.2135,0.2086,0.2086,0.2086,0.2086,0.2039,0.2037,0.2036,0.2027,0,0,0.203,0.2029,0,0,0,0,0,0,0,0,0.2196,0.2193,0.218,0.2177,0.2174,0.2123,0.2127,0.2101,0.2087,0.2115,0.2086,0.2086,0.2071,0.2066,0.2049,0.2025,0.2023,0.203,0.2029,0.2028,0.2028,0,0,0,0,0,0,0,0.2199,0.2195,0.2175,0.218,0.2176,0.2143,0.2137,0.2121,0.2093,0.2113,0.211,0.2108,0.2069,0.2051,0.2048,0.2022,0.203,0.2029,0.2027,0.2027,0.2007,0.2008,0,0,0,0,0,0,0.2218,0.2198,0.2178,0.2174,0.2188,0.2143,0.2137,0.2137,0.2092,0.2086,0.2108,0.2106,0.2054,0.205,0.2046,0.2048,0.2028,0.2027,0.2026,0.2006,0.2007,0.2008,0,0,0,0,0,0,0.2218,0.2217,0.2181,0.2187,0.218,0.2143,0.2143,0.2136,0.2122,0.2089,0.2082,0.2104,0.2053,0.2048,0.2036,0.2046,0.2026,0.2024,0.2006,0.2007,0.2007,0.2044,0,0,0,0,0,0,0.2219,0.2217,0.2227,0.2188,0.2181,0.2172,0.2143,0.2134,0.2123,0.2119,0.2083,0.2078,0.2053,0.2039,0.2034,0.2043,0.2023,0.2005,0.2006,0.2007,0.2042,0.2046,0.2049,0,0,0,0,0,0.2221,0.2234,0.2228,0.2226,0.2195,0.2173,0.2166,0.2137,0.2123,0.2123,0.2095,0.2079,0.2042,0.2037,0.2032,0.2041,0.2005,0.2006,0.2007,0.2041,0.2045,0.2049,0,0,0,0,0,0,0.2219,0.2229,0.2222,0.2229,0.2211,0.2167,0.2161,0.2144,0.212,0.2114,0.2082,0.2075,0.2069,0.2052,0.2047,0.2039,0.2023,0.2023,0.205,0.2055,0.2058,0.2059,0.2021,0,0,0,0,0,0.2233,0.2267,0.2242,0.2248,0.2238,0.2202,0.2191,0.2171,0.2143,0.2131,0.2105,0.2082,0.2068,0.206,0.2042,0.2036,0.2036,0.204,0.2044,0.2047,0.2045,0.2058,0.2062,0.2012,0.2012,0.2012,0,0,0.223,0.2244,0.2256,0.2255,0.2231,0.2218,0.2194,0.2178,0.2169,0.2132,0.2111,0.2093,0.207,0.2061,0.2057,0.2048,0.2064,0.2049,0.2051,0.2047,0.2059,0.2064,0.2069,0.2013,0.2013,0.2012,0,0,0.2233,0.2252,0.2269,0.2266,0.2253,0.2236,0.2237,0.2198,0.2185,0.2167,0.2141,0.2129,0.2101,0.2085,0.2075,0.209,0.2084,0.209,0.2106,0.2119,0.2123,0.2127,0.2147,0.2152,0.2091,0.2091,0.2091,0,0.2221,0.2244,0.2264,0.2269,0.2269,0.2248,0.224,0.2225,0.2188,0.2188,0.2168,0.2133,0.2111,0.2108,0.2106,0.2098,0.2108,0.2091,0.2124,0.2127,0.2131,0.215,0.2155,0.2093,0.2092,0.2092,0.2092,0,0.2227,0.2244,0.2248,0.2264,0.227,0.2261,0.225,0.2249,0.2234,0.2217,0.221,0.2173,0.2155,0.2149,0.2126,0.214,0.2141,0.2129,0.2114,0.2138,0.2157,0.2162,0.2095,0.2095,0.2094,0.2094,0,0,0.2178,0.2242,0.2236,0.2248,0.2269,0.2262,0.228,0.2279,0.2288,0.2256,0.2261,0.2226,0.2208,0.2196,0.2172,0.2172,0.22,0.2159,0.2159,0.218,0.2239,0.2324,0.2337,0.2197,0.2198,0.2198,0.2249,0,0.2158,0.2181,0.2227,0.2233,0.2232,0.2263,0.2285,0.2295,0.23,0.2302,0.2276,0.2262,0.2227,0.2214,0.2214,0.2201,0.2212,0.2188,0.221,0.2211,0.2285,0.2345,0.2098,0.213,0.2253,0.2254,0.2255,0,0.2126,0.2156,0.2169,0.223,0.2232,0.2237,0.2283,0.23,0.2328,0.2335,0.2332,0.2316,0.2304,0.2268,0.227,0.2259,0.2253,0.2243,0.2245,0.2312,0.2305,0.2122,0.2134,0.2262,0.2262,0.2261,0.2261,0,0.207,0.2108,0.2127,0.2141,0.2204,0.2218,0.2243,0.2293,0.2319,0.2343,0.236,0.2357,0.234,0.2339,0.2326,0.2298,0.2342,0.2303,0.2377,0.2382,0.2171,0.2159,0.2316,0.2316,0.2316,0.2316,0.2315,0,0.2036,0.204,0.2091,0.2099,0.2118,0.2173,0.2204,0.2243,0.2297,0.2335,0.2352,0.2378,0.2354,0.2379,0.2363,0.2408,0.2379,0.24,0.241,0.2182,0.2171,0.2275,0.2269,0.2317,0.2317,0.2317,0.2316,0,0.1971,0.2012,0.2028,0.2081,0.2094,0.2098,0.217,0.2203,0.2259,0.231,0.2316,0.2383,0.2438,0.2448,0.2459,0.2462,0.2489,0.2509,0.2261,0.2244,0.2506,0.2501,0.2594,0.2598,0.2601,0.2603,0.2606,0,0.1937,0.1941,0.1993,0.2006,0.2024,0.2046,0.2084,0.216,0.2206,0.2321,0.2343,0.2423,0.2494,0.2579,0.2568,0.26,0.2595,0.2416,0.2332,0.2539,0.2538,0.2529,0.2521,0.2046,0.2043,0.2041,0.2039,0,0.1871,0.1894,0.1921,0.1949,0.1973,0.2006,0.2052,0.2089,0.2199,0.2256,0.2355,0.2426,0.253,0.2466,0.2543,0.2524,0.2399,0.2385,0.2631,0.206,0.2039,0.2034,0.2039,0.202,0.2022,0.2024,0.2025,0.2025,0.1813,0.1814,0.1858,0.188,0.1912,0.194,0.1952,0.2019,0.2084,0.2131,0.2281,0.2273,0.2298,0.2291,0.2292,0.2273,0.2425,0.2276,0.2273,0.2275,0.2249,0.2239,0.2252,0.2255,0.2258,0.226,0.2262,0,0.1726,0.1751,0.1784,0.181,0.182,0.1861,0.1919,0.1905,0.194,0.1988,0.2045,0.1865,0.1888,0.1918,0.1871,0.1974,0.1863,0.1904,0.1675,0.1698,0.1717,0.1653,0.1503,0.1501,0.1499,0.1497,0,0,0.1683,0.1686,0.1716,0.1704,0.1722,0.1706,0.1724,0.1704,0.1704,0.1622,0.1553,0.1681,0.1789,0.1538,0.1597,0.153,0.1586,0.1489,0.2091,0.1836,0.1851,0.1931,0.1862,0,0,0,0,0]},{"header":{"parameterUnit":"m.s-1","parameterCategory":2,"la1":30.2991,"la2":30.254,"lo1":-89.0895,"lo2":-89.0444,"dy":0.0017,"dx":0.0017,"nx":28,"ny":28,"refTime":"2023-09-28T09:00:00:Z","depth":"2","parameterNumber":3,"parameterNumberName":"V-component_of_CURRENTS"},"data":[0,0,0,0,0,0,0,0,0,0,0,0,0,0,0,0,0,0,0,0,0,0,0,0,0,0,0,0,0,0,0,0,0,0,0,0,0,0,0,0,0,0,0,0,0,0,0,0,0,0,0,0,0,0,0,0,0,0,0.0201,0.0199,0,0.0048,0.0046,0.0044,-0.0099,-0.0101,-0.0102,-0.0104,-0.035,-0.0355,-0.036,0,0,0,0,0,0,0,0,0,0,0,0,0,0.0258,0.0258,0.0201,0.0199,0.0198,0.0048,0.0046,0.0043,-0.0099,-0.0101,-0.0103,-0.0104,-0.0348,-0.0354,-0.0361,0,0,0,0,0,0,0,0,0,0,0,0,0,0.0179,0.0258,0.0201,0.0111,0.0102,0.0049,0.0046,0.0043,-0.0099,-0.0101,-0.0103,-0.0105,-0.0346,-0.0354,-0.0361,-0.0367,0,0,-0.0385,-0.0389,0,0,0,0,0,0,0,0,0.0184,0.0176,0.0126,0.0118,0.0107,-0.0006,-0.0024,-0.0098,-0.0098,-0.0026,-0.0104,-0.0106,-0.0239,-0.0256,-0.0284,-0.0378,-0.0389,-0.0386,-0.0391,-0.0394,-0.0396,0,0,0,0,0,0,0,0.0189,0.0182,0.0136,0.0125,0.0113,0.0041,0.0028,-0.0039,-0.0124,-0.0033,-0.0043,-0.0053,-0.0246,-0.0276,-0.0291,-0.0393,-0.0386,-0.0393,-0.0398,-0.0401,-0.0624,-0.0625,0,0,0,0,0,0,0.0225,0.0188,0.0141,0.0132,0.0145,0.0042,0.0027,0.003,-0.0121,-0.0144,-0.0051,-0.0059,-0.0262,-0.0282,-0.03,-0.0422,-0.0394,-0.0401,-0.0406,-0.0623,-0.0625,-0.0626,0,0,0,0,0,0,0.0227,0.0222,0.0148,0.0158,0.0144,0.0045,0.0048,0.0028,-0.0029,-0.0133,-0.016,-0.009,-0.0264,-0.0289,-0.0389,-0.0428,-0.0405,-0.0412,-0.0622,-0.0623,-0.0625,-0.0597,0,0,0,0,0,0,0.0229,0.0224,0.0225,0.0162,0.0145,0.011,0.0049,0.0027,-0.0029,-0.0042,-0.0175,-0.0199,-0.0268,-0.0377,-0.0397,-0.0439,-0.0418,-0.062,-0.0622,-0.0625,-0.0596,-0.0597,-0.0598,0,0,0,0,0,0.0232,0.0241,0.0226,0.0219,0.0154,0.011,0.0094,0.0013,-0.0028,-0.0048,-0.0149,-0.0196,-0.0406,-0.0384,-0.0407,-0.0452,-0.0619,-0.0622,-0.0624,-0.0595,-0.0597,-0.0598,0,0,0,0,0,0,0.0229,0.0226,0.0208,0.0205,0.0162,0.0087,0.006,0.0012,-0.0081,-0.0104,-0.0209,-0.0239,-0.0341,-0.0393,-0.0366,-0.0523,-0.0521,-0.0529,-0.0491,-0.0494,-0.0495,-0.047,-0.0425,0,0,0,0,0,0.0246,0.0269,0.0229,0.0222,0.0208,0.0135,0.0102,0.0054,-0.0026,-0.007,-0.0169,-0.0272,-0.0364,-0.0425,-0.0505,-0.0586,-0.0606,-0.0631,-0.0632,-0.0633,-0.0629,-0.0683,-0.0688,-0.0635,-0.0635,-0.0635,0,0,0.0235,0.0241,0.0245,0.0227,0.0185,0.0167,0.0107,0.0065,0.0025,-0.008,-0.0182,-0.0275,-0.0383,-0.0483,-0.0534,-0.0538,-0.0657,-0.0636,-0.0636,-0.0632,-0.0686,-0.0691,-0.0695,-0.0637,-0.0637,-0.0636,0,0,0.024,0.0241,0.0261,0.0248,0.0215,0.0176,0.0168,0.0088,0.0025,-0.0064,-0.0158,-0.0266,-0.0409,-0.0497,-0.0558,-0.0607,-0.0654,-0.0648,-0.0649,-0.0702,-0.0706,-0.071,-0.0727,-0.0733,-0.0658,-0.0658,-0.0658,0,0.0221,0.0251,0.0248,0.0263,0.0254,0.0187,0.0184,0.0121,0.0007,-0.0048,-0.0094,-0.0325,-0.0412,-0.0541,-0.0573,-0.061,-0.0639,-0.0634,-0.0701,-0.0705,-0.071,-0.0727,-0.0734,-0.0657,-0.0657,-0.0657,-0.0658,0,0.0235,0.0262,0.0269,0.0284,0.0272,0.0258,0.0201,0.0145,0.0063,-0.0018,-0.0168,-0.0303,-0.0448,-0.0497,-0.056,-0.0656,-0.0664,-0.0685,-0.0689,-0.0713,-0.073,-0.0737,-0.0656,-0.0656,-0.0656,-0.0657,0,0,0.0199,0.0266,0.0268,0.0294,0.0288,0.0275,0.0232,0.0161,0.011,-0.0036,-0.0135,-0.0314,-0.0413,-0.0487,-0.0593,-0.0652,-0.0708,-0.0691,-0.0694,-0.0692,-0.0809,-0.0737,-0.0738,-0.0751,-0.0752,-0.0754,-0.0801,0,0.0202,0.024,0.0282,0.0309,0.0322,0.0302,0.0273,0.0203,0.0107,-0.0007,-0.0175,-0.0317,-0.0405,-0.0501,-0.0574,-0.0685,-0.0731,-0.0692,-0.08,-0.0802,-0.0723,-0.0745,-0.066,-0.0689,-0.0808,-0.081,-0.0811,0,0.021,0.024,0.0257,0.034,0.0343,0.0326,0.0282,0.0259,0.0115,0.0034,-0.0133,-0.0272,-0.0443,-0.0493,-0.0678,-0.0658,-0.0729,-0.079,-0.0794,-0.0741,-0.0744,-0.0691,-0.0698,-0.0823,-0.0822,-0.0821,-0.082,0,0.0185,0.0249,0.0259,0.0275,0.0318,0.0298,0.03,0.022,0.0198,0.0022,-0.0048,-0.0254,-0.0391,-0.0515,-0.0679,-0.069,-0.0832,-0.0858,-0.0847,-0.0842,-0.0795,-0.0782,-0.0945,-0.0945,-0.0945,-0.0945,-0.0945,0,0.0205,0.0235,0.0223,0.0235,0.0247,0.0273,0.0259,0.0235,0.0159,0.0132,-0.0063,-0.0143,-0.0406,-0.0537,-0.0655,-0.0772,-0.0819,-0.0841,-0.0854,-0.078,-0.0766,-0.0908,-0.0903,-0.0947,-0.0946,-0.0946,-0.0946,0,0.0223,0.0212,0.0245,0.0245,0.0242,0.0239,0.0273,0.0273,0.0188,0.014,0.0074,-0.0101,-0.0252,-0.0461,-0.0652,-0.0735,-0.0847,-0.0865,-0.0743,-0.074,-0.0823,-0.0817,-0.0861,-0.0859,-0.0857,-0.0856,-0.0855,0,0.0247,0.0243,0.024,0.0248,0.0244,0.0242,0.027,0.0259,0.0274,0.0193,0.018,-0.0005,-0.0062,-0.0312,-0.0499,-0.0667,-0.0776,-0.072,-0.0719,-0.0809,-0.0818,-0.0814,-0.081,-0.0648,-0.0646,-0.0643,-0.0641,0,0.0304,0.0269,0.0296,0.0292,0.0296,0.034,0.0361,0.0404,0.0407,0.0388,0.0394,0.0347,0.0101,-0.0043,-0.0313,-0.0428,-0.069,-0.0673,-0.0827,-0.0667,-0.0608,-0.0617,-0.062,-0.0621,-0.0623,-0.0625,-0.0626,-0.0626,0.0341,0.0358,0.0356,0.0371,0.0382,0.0439,0.0502,0.0578,0.0662,0.0718,0.066,0.0621,0.0368,0.0094,-0.0154,-0.0465,-0.0467,-0.0579,-0.0587,-0.0597,-0.0548,-0.0488,-0.0468,-0.0469,-0.047,-0.047,-0.0471,0,0.04,0.0414,0.0448,0.0464,0.0503,0.0473,0.0575,0.0677,0.0836,0.0912,0.0965,0.078,0.0614,0.0244,-0.0135,-0.0336,-0.0389,-0.0462,-0.0487,-0.0501,-0.0516,-0.0466,-0.0363,-0.0364,-0.0365,-0.0366,0,0,0.0435,0.0486,0.0505,0.0563,0.0565,0.0636,0.0704,0.088,0.0969,0.1119,0.1099,0.1134,0.0697,0.0444,0.0131,-0.0135,-0.0278,-0.0186,-0.0232,-0.0233,-0.0246,-0.0525,-0.0456,0,0,0,0,0]}],[{"header":{"parameterUnit":"m.s-1","parameterCategory":2,"la1":30.2991,"la2":30.254,"lo1":-89.0895,"lo2":-89.0444,"dy":0.0017,"dx":0.0017,"nx":28,"ny":28,"refTime":"2023-09-28T09:00:00:Z","depth":"4","parameterNumber":2,"parameterNumberName":"U-component_of_CURRENTS"},"data":[0,0,0,0,0,0,0,0,0,0,0,0,0,0,0,0,0,0,0,0,0,0,0,0,0,0,0,0,0,0,0,0,0,0,0,0,0,0,0,0,0,0,0,0,0,0,0,0,0,0,0,0,0,0,0,0,0,0,0.0815,0.0816,0,0.0861,0.0861,0.0861,0.0882,0.0883,0.0883,0.0884,0.0973,0.0975,0.0976,0,0,0,0,0,0,0,0,0,0,0,0,0,0.0779,0.0779,0.0815,0.0816,0.0817,0.0861,0.0861,0.0861,0.0882,0.0883,0.0883,0.0884,0.0972,0.0974,0.0977,0,0,0,0,0,0,0,0,0,0,0,0,0,0.0801,0.0779,0.0815,0.0837,0.084,0.0861,0.0861,0.0861,0.0882,0.0883,0.0884,0.0884,0.0971,0.0974,0.0977,0.098,0,0,0.0986,0.0987,0,0,0,0,0,0,0,0,0.08,0.0802,0.0833,0.0836,0.0839,0.0872,0.0881,0.0905,0.0882,0.086,0.0884,0.0885,0.0946,0.0951,0.0949,0.0984,0.0988,0.0986,0.0988,0.0989,0.099,0,0,0,0,0,0,0,0.0798,0.08,0.0827,0.0834,0.0838,0.0857,0.086,0.0885,0.0895,0.0862,0.0865,0.0879,0.0947,0.0946,0.0952,0.0989,0.0986,0.0988,0.099,0.0991,0.11,0.1101,0,0,0,0,0,0,0.0802,0.0798,0.0826,0.0829,0.0827,0.0857,0.086,0.0856,0.0894,0.0901,0.0878,0.088,0.0941,0.0948,0.0955,0.1036,0.0989,0.0992,0.0993,0.1098,0.11,0.1101,0,0,0,0,0,0,0.08,0.0803,0.0824,0.0821,0.0826,0.0857,0.0852,0.0856,0.0881,0.0907,0.0914,0.0903,0.0942,0.0951,0.1001,0.1037,0.0993,0.0995,0.1097,0.1099,0.11,0.115,0,0,0,0,0,0,0.0798,0.0801,0.0808,0.082,0.0826,0.0854,0.0852,0.0857,0.089,0.0893,0.093,0.0937,0.0943,0.0997,0.1004,0.104,0.0998,0.1096,0.1098,0.11,0.1147,0.1154,0.1159,0,0,0,0,0,0.0797,0.0795,0.0807,0.0812,0.083,0.0855,0.086,0.0882,0.0891,0.0905,0.0933,0.0937,0.1015,0.1,0.1008,0.1046,0.1095,0.1097,0.11,0.1145,0.1152,0.1159,0,0,0,0,0,0,0.0793,0.0798,0.0811,0.0815,0.0846,0.0862,0.0877,0.0896,0.0925,0.0936,0.0953,0.0963,0.1016,0.1024,0.1006,0.1082,0.1056,0.106,0.1087,0.1094,0.11,0.1098,0.1,0,0,0,0,0,0.0794,0.0788,0.0813,0.0823,0.0835,0.0862,0.0879,0.09,0.0926,0.094,0.0971,0.1001,0.1027,0.1056,0.1076,0.1124,0.1135,0.1153,0.1159,0.1164,0.1167,0.1192,0.12,0.111,0.111,0.111,0,0,0.0807,0.0802,0.0808,0.0823,0.0841,0.0862,0.0872,0.0906,0.0939,0.0947,0.1002,0.1023,0.1042,0.109,0.1116,0.1108,0.1204,0.1167,0.1171,0.1172,0.1196,0.1204,0.1212,0.1111,0.1111,0.1111,0,0,0.0814,0.0815,0.0814,0.0839,0.0873,0.088,0.0898,0.0935,0.0967,0.1019,0.1032,0.1075,0.1122,0.1145,0.116,0.1212,0.1226,0.1226,0.1267,0.1292,0.1299,0.1306,0.1366,0.1377,0.1238,0.1238,0.1238,0,0.0836,0.0828,0.0827,0.0841,0.0866,0.089,0.0917,0.0946,0.1005,0.1044,0.1045,0.1125,0.1143,0.1203,0.1221,0.1226,0.1253,0.1239,0.1299,0.1306,0.1312,0.1371,0.1383,0.124,0.124,0.124,0.124,0,0.0836,0.0855,0.086,0.0871,0.0895,0.0925,0.0964,0.101,0.1044,0.1082,0.116,0.1186,0.1238,0.1252,0.1253,0.1316,0.1328,0.1296,0.1281,0.1324,0.1384,0.1396,0.1244,0.1243,0.1243,0.1242,0,0,0.0849,0.0854,0.0873,0.0886,0.0919,0.0938,0.0993,0.105,0.1104,0.1161,0.1227,0.1278,0.1308,0.1326,0.1345,0.1369,0.1444,0.136,0.136,0.142,0.1536,0.1386,0.1385,0.1424,0.1426,0.1427,0.1573,0,0.0866,0.0878,0.0885,0.0931,0.0941,0.0985,0.1033,0.1096,0.1152,0.1222,0.127,0.1336,0.1333,0.1374,0.1398,0.1429,0.1472,0.141,0.1484,0.1487,0.1347,0.1391,0.1432,0.1582,0.1585,0.1587,0.1588,0,0.0883,0.0881,0.0914,0.0952,0.0967,0.1003,0.1084,0.114,0.1239,0.1288,0.1362,0.14,0.1478,0.1443,0.154,0.1505,0.153,0.1543,0.1548,0.1392,0.1356,0.1521,0.1609,0.1607,0.1606,0.1604,0.1603,0,0.0878,0.0917,0.0933,0.0952,0.0992,0.104,0.1079,0.1175,0.1227,0.1349,0.1397,0.1484,0.1531,0.1577,0.1614,0.1596,0.1688,0.1665,0.1564,0.1557,0.1627,0.1618,0.1719,0.1718,0.1718,0.1718,0.1717,0,0.0882,0.0912,0.094,0.0956,0.1007,0.1049,0.113,0.1198,0.1279,0.1329,0.1442,0.1474,0.1559,0.1615,0.1647,0.164,0.1728,0.158,0.1573,0.1651,0.1642,0.1638,0.1627,0.1723,0.1722,0.1721,0.172,0,0.0882,0.0899,0.0926,0.0975,0.1006,0.1054,0.1136,0.1179,0.1288,0.1354,0.1394,0.1487,0.1563,0.1643,0.1711,0.1664,0.1686,0.1659,0.1775,0.1771,0.1547,0.1537,0.1588,0.1583,0.158,0.1577,0.1574,0,0.0868,0.0883,0.0942,0.096,0.099,0.1061,0.1098,0.1186,0.1216,0.1333,0.134,0.1446,0.1503,0.1518,0.1588,0.1666,0.1627,0.165,0.156,0.154,0.153,0.1525,0.152,0.1568,0.1567,0.1566,0.1566,0,0.0847,0.0884,0.0896,0.0924,0.0964,0.0996,0.1053,0.1063,0.1149,0.1258,0.126,0.1299,0.1363,0.1416,0.1479,0.1518,0.1641,0.1611,0.1619,0.1535,0.1517,0.1509,0.1509,0.1553,0.1555,0.1556,0.1557,0,0.0833,0.0841,0.085,0.0875,0.091,0.09,0.0945,0.0954,0.0991,0.1117,0.1099,0.1224,0.1313,0.1338,0.1392,0.1423,0.1403,0.1356,0.1377,0.1392,0.1252,0.1196,0.1133,0,0,0,0,0,0.0803,0.0794,0.0795,0.0795,0.0815,0.083,0.0886,0.0922,0.1018,0.0983,0.1034,0.1089,0.1142,0.1199,0.1198,0.1318,0.1419,0.1309,0.1377,0.1482,0.1497,0.1347,0,0,0,0,0,0,0.0777,0.0776,0.0764,0.0709,0.0699,0.0697,0.0727,0.0783,0.0771,0.0886,0.0929,0.1015,0.1102,0.1143,0.1177,0.1199,0.1214,0.1389,0.1385,0.1474,0.1487,0.1499,0.135,0,0,0,0,0]},{"header":{"parameterUnit":"m.s-1","parameterCategory":2,"la1":30.2991,"la2":30.254,"lo1":-89.0895,"lo2":-89.0444,"dy":0.0017,"dx":0.0017,"nx":28,"ny":28,"refTime":"2023-09-28T09:00:00:Z","depth":"4","parameterNumber":3,"parameterNumberName":"V-component_of_CURRENTS"},"data":[0,0,0,0,0,0,0,0,0,0,0,0,0,0,0,0,0,0,0,0,0,0,0,0,0,0,0,0,0,0,0,0,0,0,0,0,0,0,0,0,0,0,0,0,0,0,0,0,0,0,0,0,0,0,0,0,0,0,0.0479,0.0479,0,0.0462,0.0462,0.0461,0.0455,0.0455,0.0455,0.0456,0.0417,0.0416,0.0415,0,0,0,0,0,0,0,0,0,0,0,0,0,0.0466,0.0466,0.0479,0.0479,0.0479,0.0462,0.0461,0.0461,0.0455,0.0455,0.0456,0.0456,0.0418,0.0416,0.0415,0,0,0,0,0,0,0,0,0,0,0,0,0,0.0461,0.0466,0.048,0.0475,0.0475,0.0462,0.0461,0.0461,0.0455,0.0455,0.0456,0.0456,0.0418,0.0416,0.0415,0.0397,0,0,0.0409,0.0408,0,0,0,0,0,0,0,0,0.0461,0.0461,0.0476,0.0476,0.0475,0.0462,0.0443,0.0439,0.0455,0.0461,0.0456,0.0456,0.0431,0.0428,0.0423,0.0396,0.0394,0.0409,0.0408,0.0407,0.0407,0,0,0,0,0,0,0,0.0462,0.0462,0.0471,0.0476,0.0475,0.046,0.046,0.0442,0.0443,0.046,0.046,0.0461,0.0431,0.0424,0.0422,0.0393,0.0409,0.0407,0.0406,0.0406,0.038,0.038,0,0,0,0,0,0,0.0469,0.0462,0.0472,0.0471,0.047,0.046,0.046,0.0465,0.0444,0.0441,0.046,0.046,0.0427,0.0424,0.042,0.0433,0.0407,0.0405,0.0404,0.0379,0.038,0.038,0,0,0,0,0,0,0.0469,0.047,0.0472,0.0467,0.0466,0.0461,0.0466,0.0464,0.0469,0.0444,0.0441,0.0468,0.0427,0.0423,0.0416,0.043,0.0405,0.0403,0.0379,0.0379,0.038,0.0436,0,0,0,0,0,0,0.0468,0.047,0.048,0.0468,0.0467,0.0473,0.0466,0.0464,0.0469,0.0469,0.0449,0.0446,0.0427,0.0419,0.0414,0.0427,0.0402,0.0378,0.0379,0.038,0.0434,0.0439,0.0443,0,0,0,0,0,0.0468,0.0477,0.0481,0.0482,0.048,0.0474,0.0472,0.0467,0.0469,0.0472,0.0462,0.0447,0.042,0.0418,0.0412,0.0425,0.0378,0.0379,0.038,0.0432,0.0438,0.0443,0,0,0,0,0,0,0.0477,0.0477,0.0481,0.0491,0.0488,0.0473,0.048,0.0475,0.0469,0.0473,0.045,0.0445,0.0443,0.0425,0.0423,0.0419,0.0397,0.0397,0.0439,0.0444,0.0448,0.0447,0.04,0,0,0,0,0,0.0485,0.0494,0.0489,0.0499,0.0502,0.0494,0.0494,0.0489,0.048,0.0479,0.0466,0.0453,0.044,0.0436,0.0419,0.0417,0.0389,0.0422,0.0426,0.043,0.0425,0.0393,0.0394,0.0383,0.0383,0.0383,0,0,0.0495,0.0494,0.0502,0.0502,0.0503,0.0508,0.0495,0.0499,0.0505,0.0475,0.0484,0.0466,0.0442,0.044,0.0438,0.043,0.0421,0.0431,0.0435,0.0427,0.0394,0.0395,0.0396,0.0384,0.0383,0.0383,0,0,0.0514,0.0519,0.0533,0.0532,0.0534,0.0525,0.053,0.0523,0.0526,0.0526,0.0509,0.0498,0.0483,0.0467,0.0457,0.0473,0.0442,0.0475,0.05,0.047,0.0471,0.0471,0.0447,0.0444,0.0481,0.0481,0.0481,0,0.0527,0.0543,0.0536,0.0546,0.0552,0.0537,0.0552,0.0548,0.0539,0.0543,0.0537,0.0511,0.0492,0.0485,0.0494,0.0483,0.0464,0.0485,0.0476,0.0476,0.0475,0.0449,0.0446,0.0484,0.0484,0.0483,0.0483,0,0.0549,0.0568,0.0577,0.0587,0.0588,0.0598,0.0592,0.0596,0.0595,0.0587,0.0583,0.0555,0.0538,0.0535,0.052,0.0511,0.0499,0.0483,0.0464,0.0479,0.0452,0.0447,0.0488,0.0487,0.0486,0.0485,0,0,0.0565,0.059,0.0596,0.0615,0.0612,0.0618,0.0628,0.0632,0.0644,0.0628,0.0632,0.0611,0.0593,0.058,0.0559,0.0535,0.0518,0.0515,0.0512,0.0493,0.0457,0.0415,0.0405,0.0504,0.0503,0.0503,0.0444,0,0.0589,0.0621,0.0625,0.066,0.0676,0.0671,0.0684,0.0682,0.0676,0.0673,0.0641,0.0639,0.0612,0.0613,0.0581,0.0534,0.0506,0.0535,0.0442,0.0439,0.0401,0.0398,0.0501,0.044,0.0439,0.0438,0.0438,0,0.0607,0.0627,0.0666,0.0704,0.0713,0.0733,0.075,0.0763,0.0748,0.0742,0.072,0.069,0.0659,0.0631,0.0551,0.0574,0.0518,0.0476,0.0472,0.0406,0.0387,0.0418,0.0429,0.0429,0.043,0.0431,0.0431,0,0.0609,0.0658,0.0692,0.0703,0.0735,0.0765,0.079,0.079,0.081,0.0793,0.0797,0.0737,0.0721,0.0642,0.0557,0.0557,0.0457,0.0444,0.035,0.0347,0.0379,0.0379,0.0374,0.0374,0.0375,0.0375,0.0375,0,0.0617,0.0651,0.0708,0.0726,0.0781,0.0801,0.0853,0.086,0.0871,0.0887,0.0846,0.0829,0.0723,0.0653,0.0565,0.0444,0.0463,0.0346,0.0324,0.0406,0.041,0.0376,0.0377,0.0373,0.0373,0.0373,0.0374,0,0.0606,0.0641,0.0688,0.0752,0.0784,0.0826,0.0908,0.0935,0.0954,0.0969,0.097,0.0901,0.0808,0.0696,0.0558,0.0462,0.0349,0.0299,0.0401,0.0387,0.0256,0.0261,0.0185,0.0182,0.0181,0.0179,0.0178,0,0.0597,0.0622,0.0709,0.0749,0.0789,0.0865,0.0915,0.0965,0.0993,0.1005,0.1004,0.0932,0.0866,0.0644,0.052,0.034,0.0307,0.0244,0.0236,0.0248,0.0234,0.0242,0.0249,0.0175,0.0175,0.0174,0.0174,0,0.0582,0.0619,0.0657,0.074,0.0812,0.0885,0.0967,0.0991,0.1038,0.1065,0.101,0.09,0.0782,0.0613,0.0475,0.0345,0.0282,0.0225,0.0228,0.0219,0.0236,0.0226,0.0234,0.0168,0.0169,0.0169,0.0169,0,0.0571,0.0594,0.0652,0.0726,0.0811,0.088,0.0927,0.0967,0.1,0.1023,0.0995,0.0888,0.0827,0.0615,0.0489,0.0355,0.0311,0.0252,0.0252,0.0258,0.029,0.0322,0.0254,0,0,0,0,0,0.0554,0.0583,0.0639,0.072,0.0801,0.0858,0.0946,0.0986,0.1043,0.1,0.0999,0.0888,0.0683,0.0603,0.0458,0.0447,0.0287,0.0269,0.0219,0.0134,0.0141,0.0161,0,0,0,0,0,0,0.0542,0.0586,0.0622,0.07,0.0758,0.0848,0.0906,0.0942,0.0922,0.0956,0.0852,0.0831,0.064,0.0767,0.0449,0.0412,0.0352,0.0194,0.019,0.013,0.0136,0.0142,0.0165,0,0,0,0,0]}]]